www.pogodaiklimat.ru

АРХИВ ПОГОДЫ в Сан-Антонио

Время (UTC), дата Ветер
(напр.,м/с)
 
Видим.   Явления Облачность Т
(С)
Тd
(С)
f
(%)
Тe
(С)
Тes
(С)
Комфортность

P
(гПа)

Po
(гПа)
Тmin
(С)
Tmax
(С)
R
(мм)
SD
(см)
00:51 27.09 СВ  16 км    10/10 0 м
[верхняя средняя] 
+24.0  +18.0  69  +28  +28  душно  1015.6  987.8  +21.1  +27.8     
01:51 27.09 С  16 км    10/10 0 м
[верхняя средняя] 
+22.8  +17.8  73  +28  +28  душно  1016.2  988.5  +21.1  +27.8     
02:51 27.09 С  16 км    10/10 0 м
[верхняя средняя] 
+22.0  +17.0  73  +26  +26  душно  1016.5  988.8  +21.1  +27.8     
03:51 27.09 С  4
{9} 
16 км    10/10 0 м
[верхняя средняя] 
+21.0  +16.0  73  +24  +24  комфорт  1015.8  988.1  +21.1  +27.8     
04:51 27.09 С  16 км    10/10 0 м
[верхняя средняя] 
+21.1  +15.6  71  +24  +24  комфорт  1016.1  988.5  +21.1  +27.8     
05:51 27.09 С  16 км    10/10 0 м
[верхняя средняя] 
+21.0  +15.0  69  +24  +24  комфорт  1016.4  988.8  +18.3  +21.1     
06:51 27.09 С  4
{8} 
16 км    10/10 0 м
[верхняя средняя] 
+20.0  +14.0  68  +22  +22  комфорт  1016.5  988.8  +18.3  +21.1     
07:51 27.09 С  16 км    10/10 0 м
[верхняя средняя] 
+18.9  +12.8  68  +19  +19    1016.8  989.1  +18.3  +21.1     
08:51 27.09 С  16 км    10/10 0 м
[верхняя средняя] 
+19.0  +12.0  64  +19  +19    1016.6  988.8  +18.3  +21.1     
09:51 27.09 С  16 км    10/10 0 м
[верхняя средняя] 
+19.0  +11.0  60  +19  +19    1016.4  988.8  +18.3  +21.1     
10:51 27.09 С  16 км    10/10 0 м
[верхняя средняя] 
+18.9  +11.7  63  +19  +19    1016.7  988.8  +18.3  +21.1     
11:51 27.09 С  16 км    10/10 0 м
[верхняя средняя] 
+18.0  +12.0  68  +18  +18    1016.8  988.8  +18.3  +22.8     
13:51 27.09 С  16 км    10/10 0 м
[верхняя средняя] 
+18.9  +11.7  63  +19  +19    1018.0  990.1  +18.3  +22.8     
14:51 27.09 С  16 км    10/10 0 м
[верхняя средняя] 
+20.0  +11.0  56  +21  +21  комфорт  1017.8  989.8  +18.3  +22.8     
15:51 27.09 СВ  16 км    10/10 0 м
[верхняя средняя] 
+21.0  +12.0  56  +24  +24  комфорт  1017.6  989.8  +18.3  +22.8     
16:51 27.09 нст  16 км    10/10 0 м
[верхняя средняя] 
+22.8  +12.8  53  +26  +26  жарко  1016.9  989.1  +18.3  +22.8     
17:12 27.09 нст  16 км    10/10 0 м
[верхняя средняя] 
+23.0  +13.0  53  +26  +26  жарко  1015.7  988.5  +22.8  +27.2     
18:51 27.09 СВ  16 км    10/10 0 м
[верхняя средняя] 
+27.0  +16.0  51  +30  +30  душно  1015.0  987.2  +22.8  +27.2     
19:51 27.09 штиль  16 км    10/10 0 м
[верхняя средняя] 
+26.7  +15.6  51  +30  +30  душно  1014.1  986.5  +22.8  +27.2     
20:51 27.09 нст  16 км    10/10 0 м
[верхняя средняя] 
+27.0  +16.0  51  +30  +30  душно  1013.7  986.2  +22.8  +27.2     
21:51 27.09 ЮВ  16 км    10/10 0 м
[верхняя средняя] 
+26.0  +17.0  58  +30  +30  душно  1013.6  985.8  +22.8  +27.2     
22:51 27.09 ЮВ  16 км    10/10 0 м
[верхняя средняя] 
+23.9  +16.7  64  +27  +27  жарко  1014.1  986.2  +22.8  +27.2     
23:51 27.09 ЮВ  16 км    10/10 0 м
[верхняя средняя] 
+23.0  +17.0  69  +28  +28  душно  1014.7  986.8  +20.0  +24.4     
00:51 28.09 ЮВ  16 км    10/10 0 м
[верхняя средняя] 
+22.0  +17.0  73  +26  +26  душно  1015.3  987.5  +20.0  +24.4     
01:51 28.09 ЮВ  16 км    10/10 0 м
[верхняя средняя] 
+21.1  +17.2  78  +25  +25  комфорт  1016.1  988.1  +20.0  +24.4     
02:51 28.09 В  16 км    10/10 0 м
[верхняя средняя] 
+21.0  +17.0  78  +26  +26  душно  1016.2  988.1  +20.0  +24.4     
03:51 28.09 штиль  16 км  дождь  10/10 0 м
[верхняя средняя] 
+21.0  +17.0  78  +25  +25  комфорт  1015.8  987.8  +20.0  +24.4     
04:51 28.09 З  16 км    10/10 0 м
[верхняя средняя] 
+20.0  +16.7  81  +23  +23  комфорт  1015.5  987.8  +20.0  +24.4     
05:51 28.09 штиль  16 км    10/10 0 м
[верхняя средняя] 
+19.0  +17.0  88  +20  +20    1015.5  987.5  +17.8  +20.0     
06:51 28.09 штиль  16 км    10/10 0 м
[верхняя средняя] 
+19.0  +17.0  88  +20  +20    1015.3  987.5  +17.8  +20.0     
07:51 28.09 СЗ  16 км    10/10 0 м
[верхняя средняя] 
+18.3  +16.7  90  +20  +20    1015.2  987.5  +17.8  +20.0     
08:51 28.09 штиль  16 км    10/10 0 м
[верхняя средняя] 
+19.0  +17.0  88  +20  +20    1015.2  987.5  +17.8  +20.0     
09:51 28.09 штиль  16 км    10/10 0 м
[верхняя средняя] 
+19.0  +17.0  88  +20  +20    1015.3  987.5  +17.8  +20.0     
10:51 28.09 штиль  16 км    10/10 0 м
[верхняя средняя] 
+17.8  +16.1  90  +18  +18    1015.7  987.8  +17.8  +20.0     
11:51 28.09 штиль  16 км    10/10 0 м
[верхняя средняя] 
+18.0  +17.0  94  +18  +18    1016.4  988.5  +17.8  +26.1     
12:19 28.09 штиль  16 км    10/10 0 м
[верхняя средняя] 
+19.0  +17.0  88  +20  +20    1016.9  988.8  +17.8  +26.1     
13:38 28.09 СВ  16 км    10/10 0 м
[верхняя средняя] 
+21.0  +18.0  83  +26  +26  душно  1017.5  989.5  +17.8  +26.1     
14:51 28.09 ЮВ  16 км    10/10 0 м
[верхняя средняя] 
+24.0  +19.0  74  +29  +29  душно  1017.6  989.8  +17.8  +26.1     
15:51 28.09 нст  16 км    10/10 0 м
[верхняя средняя] 
+26.0  +19.0  65  +31  +31  очень
душно 
1017.5  989.8  +17.8  +26.1     
16:51 28.09 нст  16 км    10/10 0 м
[верхняя средняя] 
+25.6  +18.9  66  +31  +31  очень
душно 
1017.2  989.5  +17.8  +26.1     
17:51 28.09 нст  16 км    10/10 0 м
[верхняя средняя] 
+27.0  +19.0  62  +32  +32  очень
душно 
1016.3  988.5  +25.6  +27.8     
18:51 28.09 Ю  16 км    10/10 0 м
[верхняя средняя] 
+27.0  +19.0  62  +32  +32  очень
душно 
1015.4  987.5  +25.6  +27.8     
19:51 28.09 Ю  16 км    10/10 0 м
[верхняя средняя] 
+27.2  +19.4  62  +33  +33  очень
душно 
1014.9  987.2  +25.6  +27.8     
20:51 28.09 ЮВ  16 км    10/10 0 м
[верхняя средняя] 
+27.0  +19.0  62  +32  +32  очень
душно 
1015.0  987.2  +25.6  +27.8     
21:51 28.09 нст  16 км    10/10 0 м
[верхняя средняя] 
+28.0  +19.0  58  +33  +33  очень
душно 
1014.9  987.2  +25.6  +27.8     
22:51 28.09 Ю  16 км    10/10 0 м
[верхняя средняя] 
+26.1  +19.4  67  +32  +32  очень
душно 
1015.3  987.5  +25.6  +27.8     
23:51 28.09 ЮВ  16 км    10/10 0 м
[верхняя средняя] 
+24.0  +20.0  78  +29  +29  душно  1015.7  987.8  +23.3  +26.1     
00:51 29.09 В  16 км    10/10 0 м
[верхняя средняя] 
+24.0  +20.0  78  +29  +29  душно  1016.2  988.1  +23.3  +26.1     

 

Местоположение метеостанции San Antonio International Airport: широта 29.5328 долгота -98.4636 высота над уровнем моря 246 м.

В архиве по умолчанию представлена погода в Сан-Антонио за последние 1-2 суток. Обновление информации о фактической погоде в базе происходит ежечасно! Архивные данные за месяц целиком и за предыдущие месяцы Вы можете получить, выбрав интересующий диапазон дат из раскрывающегося списка и нажав кнопку "Ввод!".

Внимание! Архив погоды МЕТАР в базе сайта в настоящее время начинается c 1 января 2013 г. Нет смысла пытаться выбрать более раннюю дату.

Внимание! Время в таблицах - всемирное. Для получения местного времени необходимо прибавить поправку, которая в Сан-Антонио равна -6 ч.

Ветер - указаны скорость ветра в м/с и направление, откуда дует ветер: С - северный, СВ - северо-восточный, В - восточный, ЮВ - юго-восточный, Ю - южный, ЮЗ - юго-западный, З - западный, СЗ - северо-западный.
Видимость - горизонтальная дальность видимости в метрах или километрах. При видимости от 1 до 10 км при отсутствии осадков обычно наблюдается дымка, при ухудшении видимости до 1 км и менее - туман. В сухую погоду видимость может ухудшаться дымом, пылью или мглою.
Атмосферные явления - указаны явления, наблюдавшиеся в указанный момент времени.
Облачность - указаны через наклонную черту верхняя и нижняя облачность в баллах и высота нижней границы облаков в метрах. Внимание: облачность, как и прочие метеорологические величины в США измеряются автоматическими метеостанциями. Указанные значения в баллах носят условный характер и показывают процент времени, в течение которого, в среднем, лазерный луч высотомера отражался от облаков обратно.
T - Температура воздуха - температура, измеренная на высоте 2 м над землей.
Td - Температура точки росы - температура, при понижении до которой содержащийся в воздухе водяной пар достигнет насыщения.
f - Относительная влажность воздуха - влажноcть воздуха, измеренная на высоте 2 м над землей.
Te - Эффективная температура - температура, которую ощущает одетый по сезону человек в тени. Характеристика душности погоды. При расчете учитывается влияние влажности воздуха и скорости ветра на теплоощущения человека.
Tes - Эффективная температура на солнце - температура, которую ощущает человек, с поправкой на солнечный нагрев. Характеристика знойности погоды. Зависит от высоты солнца над горизонтом, облачности и скорости ветра. Ночью, в пасмурную погоду, а также при ветре 12 м/с и более поправка равна нулю.
P - Атмосферное давление - приведенное к уровню моря атмосферное давление.
Po - Атмосферное давление - измеренное на уровне метеостанции атмосферное давление.
Tmin - Минимальная температура - минимум температуры воздуха на высоте 2 м над землей.
Tmax - Максимальная температура - максимум температуры воздуха на высоте 2 м над землей.
R - Количество осадков - Количество выпавших осадков за 3 или 6 часов, мм.
SD - Снежный покров - Высота снежного покрова, см.